Hourly Data Report for October 04, 2017

All times are specified in Local Standard Time (LST). Add 1 hour to adjust for Daylight Saving Time where and when it is observed.

FREDERICTON
NEW BRUNSWICK

45°52'08.000" N
66°32'14.000" W
20.70 m
8101505
71700
YFC

Download Data

Hourly Data (October 2017)
Hourly Data Report for October 4, 2017
Temp Definition
°C
Dew Point Temp Definition
°C
Rel Hum Definition
%
Wind Dir Definition
10's deg

Wind Spd Definition
km/h
Visibility Definition
km
Stn Press Definition
kPa
Hmdx Definition


Wind Chill Definition


Weather Definition


TIME
00:00 Legend Double Dagger 8.9 6.7 86 20 9 16.1 102.53     LegendNANA
01:00 Legend Double Dagger 7.7 6.3 91 19 5 16.1 102.48     LegendNANA
02:00 Legend Double Dagger 7.9 6.7 92 19 13 16.1 102.43     LegendNANA
03:00 Legend Double Dagger 6.8 6.1 95 21 5 16.1 102.36     LegendNANA
04:00 Legend Double Dagger 7.0 6.4 96 20 11 16.1 102.31     LegendNANA
05:00 Legend Double Dagger 6.8 6.2 96 19 9 16.1 102.26     LegendNANA
06:00 Legend Double Dagger 6.1 5.8 98 22 5 16.1 102.19     LegendNANA
07:00 Legend Double Dagger 9.3 8.7 96 21 18 16.1 102.13     LegendNANA
08:00 Legend Double Dagger 10.9 9.5 91 23 17 16.1 102.11     LegendNANA
09:00 Legend Double Dagger 13.4 9.9 79 23 22 16.1 102.08     LegendNANA
10:00 Legend Double Dagger 16.6 10.3 66 22 18 16.1 102.01     LegendNANA
11:00 Legend Double Dagger 19.6 9.8 53 23 24 16.1 101.89     LegendNANA
12:00 Legend Double Dagger 21.6 10.2 48 20 26 16.1 101.75     LegendNANA
13:00 Legend Double Dagger 22.7 10.5 45 22 24 16.1 101.62     LegendNANA
14:00 Legend Double Dagger 23.6 10.9 44 21 22 16.1 101.51 25   LegendNANA
15:00 Legend Double Dagger 25.5 11.3 41 23 21 16.1 101.40 27   LegendNANA
16:00 Legend Double Dagger 25.1 11.4 42 21 22 16.1 101.30 27   LegendNANA
17:00 Legend Double Dagger 24.3 11.9 45 19 18 16.1 101.21 27   LegendNANA
18:00 Legend Double Dagger 21.6 12.2 55 20 22 16.1 101.19     LegendNANA
19:00 Legend Double Dagger 20.0 11.9 59 19 17 16.1 101.13     LegendNANA
20:00 Legend Double Dagger 17.6 11.5 67 17 15 16.1 101.09     LegendNANA
21:00 Legend Double Dagger 16.6 10.9 69 15 8 16.1 101.01     LegendNANA
22:00 Legend Double Dagger 15.3 10.3 72 18 9 16.1 100.94     LegendNANA
23:00 Legend Double Dagger 16.3 9.8 65 19 13 16.1 100.81     LegendNANA

Notes on Data Quality.

Legend

  • E = Estimated
  • M = Missing
  • NA = Not Available
  • ‡ = Partner data that is not subject to review by the National Climate Archives
Date modified: